period_start,C,m1,H,J0,J1,J2,J3,J4,J5,JA,JB,JC,JD,JJ,JK,JN,#
2015-01-22 00:03:47,0.28,6.15,0.00,23.73,27.62,30.21,4.72,27.85,1012.36,2026.99,1717.11,1996.39,2167.39,349.37,344.79,22.06,0000 0000 0000 0000 000000
2015-01-22 00:08:49,0.28,6.15,0.00,23.75,27.62,30.22,4.79,27.96,1012.38,2026.99,1715.68,1995.29,2166.11,350.12,345.41,22.09,0000 0000 0000 0000 000000
2015-01-22 00:13:50,0.27,6.16,0.00,23.76,27.63,30.23,4.77,27.75,1012.42,2026.99,1714.20,1994.20,2164.86,350.75,346.01,22.12,0000 0000 0000 0000 000000
2015-01-22 00:18:51,0.31,6.17,0.00,23.74,27.64,30.24,4.78,27.83,1012.36,2026.99,1712.67,1992.98,2163.64,349.99,345.29,22.15,0000 0000 0000 0000 000000
2015-01-22 00:23:52,0.31,6.18,0.00,23.74,27.64,30.26,4.72,27.81,1012.26,2026.98,1711.00,1991.79,2162.31,349.57,344.83,22.17,0000 0000 0000 0000 000000
2015-01-22 00:28:53,0.30,6.19,0.00,23.70,27.65,30.24,4.77,27.82,1012.24,2026.98,1709.54,1990.68,2161.01,350.38,345.82,22.20,0000 0000 0000 0000 000000
2015-01-22 00:33:54,0.34,6.20,0.00,23.75,27.65,30.25,4.76,27.76,1012.25,2026.99,1707.78,1989.48,2159.70,349.89,345.21,22.23,0000 0000 0000 0000 000000
2015-01-22 00:38:56,0.33,6.21,0.00,23.75,27.65,30.25,4.67,27.86,1012.23,2026.98,1705.92,1988.10,2158.26,349.65,344.95,22.26,0000 0000 0000 0000 000000
2015-01-22 00:43:58,0.36,6.22,0.00,23.73,27.65,30.25,4.74,27.82,1012.22,2026.97,1704.03,1986.70,2156.73,349.76,345.27,22.29,0000 0000 0000 0000 000000
2015-01-22 00:48:59,0.33,6.23,0.00,23.73,27.65,30.27,4.81,27.81,1012.22,2026.98,1702.16,1985.42,2155.30,350.49,345.83,22.32,0000 0000 0000 0000 000000
2015-01-22 00:54:01,0.34,6.24,0.00,23.76,27.65,30.28,4.73,27.76,1012.18,2026.98,1700.37,1984.09,2153.81,350.21,345.44,22.35,0000 0000 0000 0000 000000
2015-01-22 00:59:02,0.35,6.25,0.00,23.74,27.65,30.26,4.72,27.87,1012.16,2026.98,1698.56,1982.84,2152.41,350.14,345.40,22.38,0000 0000 0000 0000 000000
2015-01-22 01:04:03,0.34,6.26,0.00,23.75,27.65,30.27,4.79,27.93,1012.22,2026.94,1696.78,1981.59,2150.94,350.12,345.65,22.41,0000 0000 0000 0000 000000
2015-01-22 01:09:05,0.30,6.27,0.00,23.73,27.65,30.26,4.78,27.95,1012.22,2026.97,1695.21,1980.45,2149.69,350.45,345.77,22.44,0000 0000 0000 0000 000000
2015-01-22 01:14:06,0.30,6.28,0.00,23.75,27.66,30.26,4.75,27.92,1012.21,2026.96,1693.48,1979.23,2148.36,350.28,345.13,22.47,0000 0000 0000 0000 000000
2015-01-22 01:19:07,0.32,6.29,0.00,23.74,27.66,30.28,4.71,27.89,1012.21,2026.97,1691.83,1977.99,2147.06,349.63,344.91,22.50,0000 0000 0000 0000 000000
2015-01-22 01:24:08,0.32,6.30,0.00,23.73,27.67,30.26,4.72,27.80,1012.22,2026.95,1690.21,1976.76,2145.70,350.14,345.35,22.53,0000 0000 0000 0000 000000
2015-01-22 01:29:09,0.33,6.31,0.00,23.73,27.67,30.28,4.73,27.80,1012.22,2026.98,1688.57,1975.61,2144.41,349.62,344.96,22.56,0000 0000 0000 0000 000000
2015-01-22 01:34:10,0.30,6.32,0.00,23.72,27.67,30.28,4.71,27.77,1012.22,2026.93,1686.90,1974.35,2142.98,349.80,344.96,22.58,0000 0000 0000 0000 000000
2015-01-22 01:39:12,0.30,6.33,0.00,23.74,27.67,30.29,4.77,28.07,1012.22,2026.86,1685.23,1973.08,2141.64,349.86,345.16,22.61,0000 0000 0000 0000 000000
2015-01-22 01:44:13,0.35,6.34,0.00,23.75,27.67,30.29,4.76,27.93,1012.22,2026.89,1683.56,1971.84,2140.33,350.19,345.57,22.64,0000 0000 0000 0000 000000
2015-01-22 01:49:14,0.27,6.34,0.00,23.75,27.67,30.29,4.71,28.01,1012.21,2026.61,1681.72,1970.54,2138.83,350.04,345.49,22.67,0000 0000 0000 0000 000000
2015-01-22 01:54:16,0.33,6.36,0.00,23.71,27.67,30.29,4.80,28.02,1012.22,2026.49,1679.87,1969.19,2137.39,350.29,345.72,22.70,0000 0000 0000 0000 000000
2015-01-22 01:59:17,0.40,6.37,0.00,23.72,27.67,30.29,4.79,27.97,1012.22,2026.51,1677.97,1967.78,2135.87,350.40,345.75,22.73,0000 0000 0000 0000 000000
2015-01-22 02:04:19,0.34,6.38,0.00,23.73,27.67,30.29,4.77,27.88,1012.22,2026.34,1675.94,1966.35,2134.27,349.74,345.21,22.76,0000 0000 0000 0000 000000
2015-01-22 02:09:20,0.45,6.39,0.00,23.70,27.67,30.30,4.81,27.88,1012.22,2026.30,1673.79,1964.75,2132.60,349.77,345.14,22.79,0000 0000 0000 0000 000000
2015-01-22 02:14:21,0.35,6.40,0.00,23.74,27.67,30.31,4.74,27.99,1012.22,2026.25,1671.73,1963.29,2130.93,349.64,344.71,22.82,0000 0000 0000 0000 000000
2015-01-22 02:19:23,0.47,6.41,0.00,23.76,27.67,30.29,4.72,28.01,1012.22,2026.30,1669.51,1961.69,2129.30,349.71,345.14,22.85,0000 0000 0000 0000 000000
2015-01-22 02:24:24,0.43,6.43,0.00,23.76,27.67,30.28,4.76,28.10,1012.19,2026.33,1667.24,1960.07,2127.54,349.73,345.06,22.88,0000 0000 0000 0000 000000
2015-01-22 02:29:25,0.46,6.44,0.00,23.73,27.68,30.28,4.87,28.06,1012.07,2026.43,1664.95,1958.44,2125.78,350.12,345.44,22.91,0000 0000 0000 0000 000000
2015-01-22 02:34:26,0.45,6.45,0.00,23.73,27.68,30.28,4.71,27.95,1011.83,2026.57,1662.82,1956.78,2124.00,349.92,345.02,22.94,0000 0000 0000 0000 000000
2015-01-22 02:39:27,0.32,6.46,0.00,23.70,27.69,30.27,4.83,28.13,1011.77,2026.26,1660.69,1955.20,2122.31,350.40,345.52,22.97,0000 0000 0000 0000 000000
2015-01-22 02:44:29,0.42,6.47,0.00,23.74,27.69,30.30,4.66,27.97,1011.76,2026.18,1658.60,1953.74,2120.75,349.51,344.72,22.99,0000 0000 0000 0000 000000
2015-01-22 02:49:30,0.44,6.49,0.00,23.71,27.70,30.26,4.78,28.12,1011.76,2026.43,1656.66,1952.45,2119.34,349.72,344.90,23.02,0000 0000 0000 0000 000000
2015-01-22 02:54:31,0.31,6.50,0.00,23.69,27.70,30.26,4.77,27.88,1011.77,2026.39,1654.86,1951.08,2117.81,351.33,346.40,23.05,0000 0000 0000 0000 000000
2015-01-22 02:59:33,0.40,6.51,0.00,23.73,27.70,30.28,4.76,28.15,1011.75,2026.41,1653.03,1949.68,2116.41,350.63,346.00,23.08,0000 0000 0000 0000 000000
2015-01-22 03:04:34,0.37,6.52,0.00,23.73,27.70,30.30,4.72,27.97,1011.74,2026.31,1651.01,1948.24,2114.79,349.63,345.07,23.11,0000 0000 0000 0000 000000
2015-01-22 03:09:35,0.37,6.53,0.00,23.74,27.70,30.31,4.69,27.87,1011.73,2026.24,1648.99,1946.80,2113.29,349.62,344.78,23.14,0000 0000 0000 0000 000000
2015-01-22 03:14:36,0.36,6.54,0.00,23.72,27.70,30.32,4.75,27.97,1011.73,2026.24,1647.24,1945.49,2111.78,350.30,345.38,23.17,0000 0000 0000 0000 000000
2015-01-22 03:19:38,0.32,6.55,0.00,23.75,27.70,30.30,4.75,28.00,1011.73,2026.15,1645.42,1944.06,2110.53,349.30,344.38,23.20,0000 0000 0000 0000 000000
2015-01-22 03:24:39,0.43,6.56,0.00,23.74,27.70,30.29,4.78,27.96,1011.73,2026.20,1643.54,1942.69,2108.98,349.96,345.22,23.23,0000 0000 0000 0000 000000
2015-01-22 03:29:40,0.36,6.58,0.00,23.71,27.70,30.33,4.74,27.98,1011.73,2026.14,1641.46,1941.19,2107.31,350.06,345.26,23.26,0000 0000 0000 0000 000000
2015-01-22 03:34:42,0.46,6.59,0.00,23.72,27.70,30.31,4.73,27.88,1011.73,2026.09,1639.30,1939.61,2105.61,350.19,345.25,23.29,0000 0000 0000 0000 000000
2015-01-22 03:39:43,0.39,6.60,0.00,23.71,27.70,30.30,4.78,28.26,1011.72,2026.09,1637.22,1938.09,2103.97,349.88,345.20,23.32,0000 0000 0000 0000 000000
2015-01-22 03:44:44,0.43,6.61,0.00,23.71,27.70,30.30,4.73,27.95,1011.69,2026.06,1635.17,1936.59,2102.34,350.02,345.35,23.35,0000 0000 0000 0000 000000
2015-01-22 03:49:45,0.37,6.62,0.00,23.74,27.70,30.30,4.80,27.88,1011.64,2026.03,1633.19,1935.12,2100.73,350.05,345.10,23.38,0000 0000 0000 0000 000000
2015-01-22 03:54:46,0.41,6.64,0.00,23.76,27.70,30.30,4.64,27.89,1011.69,2026.06,1631.24,1933.73,2099.22,349.32,344.84,23.40,0000 0000 0000 0000 000000
2015-01-22 03:59:47,0.42,6.65,0.00,23.75,27.70,30.30,4.81,28.01,1011.66,2026.08,1629.10,1932.25,2097.61,350.65,345.86,23.43,0000 0000 0000 0000 000000
2015-01-22 04:04:49,0.38,6.66,0.00,23.75,27.70,30.31,4.72,28.00,1011.68,2026.07,1627.24,1930.76,2096.05,349.74,344.84,23.46,0000 0000 0000 0000 000000
2015-01-22 04:09:50,0.36,6.67,0.00,23.74,27.70,30.33,4.86,28.04,1011.68,2026.04,1625.49,1929.46,2094.61,350.88,345.86,23.49,0000 0000 0000 0000 000000
2015-01-22 04:14:51,0.35,6.68,0.00,23.73,27.70,30.32,4.80,27.93,1011.68,2026.05,1623.67,1928.19,2093.18,350.22,345.26,23.52,0000 0000 0000 0000 000000
2015-01-22 04:19:53,0.43,6.69,0.00,23.71,27.70,30.29,4.81,27.95,1011.58,2026.01,1621.74,1926.72,2091.64,350.35,345.42,23.55,0000 0000 0000 0000 000000
2015-01-22 04:24:54,0.36,6.70,0.00,23.70,27.71,30.31,4.77,27.97,1011.54,2026.00,1619.79,1925.32,2090.11,350.21,345.33,23.58,0000 0000 0000 0000 000000
2015-01-22 04:29:55,0.39,6.72,0.00,23.74,27.72,30.31,4.77,28.08,1011.58,2026.01,1617.89,1923.92,2088.61,350.09,345.28,23.61,0000 0000 0000 0000 000000
2015-01-22 04:34:56,0.36,6.73,0.00,23.70,27.72,30.33,4.80,28.09,1011.63,2026.01,1616.11,1922.64,2087.20,350.27,345.60,23.64,0000 0000 0000 0000 000000
2015-01-22 04:39:57,0.37,6.74,0.00,23.73,27.72,30.31,4.78,28.12,1011.51,2026.01,1614.26,1921.31,2085.72,350.17,345.35,23.67,0000 0000 0000 0000 000000
2015-01-22 04:44:59,0.34,6.75,0.00,23.73,27.72,30.33,4.72,28.14,1011.56,2026.01,1612.56,1919.98,2084.35,350.19,345.30,23.70,0000 0000 0000 0000 000000
2015-01-22 04:50:01,0.40,6.76,0.00,23.74,27.72,30.33,4.79,28.07,1011.42,2026.00,1610.76,1918.70,2082.83,350.66,345.62,23.73,0000 0000 0000 0000 000000
2015-01-22 04:55:02,0.35,6.77,0.00,23.74,27.72,30.34,4.66,27.88,1011.29,2026.00,1608.97,1917.45,2081.48,350.18,345.34,23.76,0000 0000 0000 0000 000000
2015-01-22 05:00:03,0.36,6.78,0.00,23.72,27.72,30.33,4.78,28.13,1011.26,2026.00,1607.12,1916.09,2079.96,350.49,345.31,23.79,0000 0000 0000 0000 000000
2015-01-22 05:05:04,0.40,6.79,0.00,23.71,27.72,30.30,4.83,27.99,1011.25,2026.00,1605.30,1914.72,2078.54,350.05,345.08,23.81,0000 0000 0000 0000 000000
2015-01-22 05:10:06,0.37,6.80,0.00,23.72,27.72,30.33,4.73,28.02,1011.25,2026.01,1603.52,1913.45,2077.06,349.77,344.77,23.84,0000 0000 0000 0000 000000
2015-01-22 05:15:07,0.39,6.81,0.00,23.70,27.72,30.31,4.78,28.07,1011.25,2026.01,1601.66,1912.08,2075.59,350.02,344.63,23.87,0000 0000 0000 0000 000000
2015-01-22 05:20:08,0.40,6.83,0.00,23.73,27.72,30.35,4.74,28.07,1011.26,2026.01,1599.81,1910.69,2074.09,350.16,345.37,23.90,0000 0000 0000 0000 000000
2015-01-22 05:25:10,0.35,6.84,0.00,23.71,27.72,30.35,4.74,28.08,1011.26,2026.00,1598.14,1909.35,2072.63,350.28,345.33,23.93,0000 0000 0000 0000 000000
2015-01-22 05:30:11,0.37,6.85,0.00,23.72,27.72,30.34,4.75,28.06,1011.27,2026.00,1596.36,1907.94,2071.19,350.01,344.99,23.96,0000 0000 0000 0000 000000
2015-01-22 05:35:12,0.35,6.86,0.00,23.70,27.72,30.34,4.78,28.06,1011.26,2026.00,1594.69,1906.74,2069.83,350.02,344.67,23.99,0000 0000 0000 0000 000000
2015-01-22 05:40:13,0.38,6.87,0.00,23.73,27.72,30.35,4.72,27.95,1011.26,2026.00,1592.97,1905.44,2068.44,349.67,344.55,24.02,0000 0000 0000 0000 000000
2015-01-22 05:45:15,0.32,6.88,0.00,23.73,27.72,30.34,4.76,28.04,1011.26,2026.00,1591.33,1904.17,2067.01,350.16,345.20,24.05,0000 0000 0000 0000 000000
2015-01-22 05:50:16,0.38,6.89,0.00,23.70,27.72,30.36,4.81,28.13,1011.25,2026.00,1589.62,1902.97,2065.70,350.26,345.02,24.08,0000 0000 0000 0000 000000
2015-01-22 05:55:17,0.37,6.90,0.00,23.70,27.72,30.35,4.71,27.95,1011.26,2026.00,1587.92,1901.68,2064.33,349.92,345.17,24.11,0000 0000 0000 0000 000000
2015-01-22 06:00:19,0.35,6.91,0.00,23.72,27.72,30.33,4.74,27.99,1011.25,2026.00,1586.17,1900.43,2062.94,349.63,344.72,24.14,0000 0000 0000 0000 000000
2015-01-22 06:05:20,0.34,6.92,0.00,23.71,27.72,30.32,4.80,28.10,1011.25,2026.00,1584.61,1899.18,2061.61,349.84,344.84,24.17,0000 0000 0000 0000 000000
2015-01-22 06:10:21,0.36,6.93,0.00,23.72,27.72,30.34,4.67,27.86,1011.25,2026.00,1582.88,1897.92,2060.28,349.96,345.06,24.20,0000 0000 0000 0000 000000
2015-01-22 06:15:22,0.38,6.94,0.00,23.75,27.73,30.34,4.68,28.10,1011.25,2026.00,1581.16,1896.64,2058.80,350.20,345.08,24.23,0000 0000 0000 0000 000000
2015-01-22 06:20:24,0.41,6.96,0.00,23.71,27.73,30.32,4.76,28.10,1011.25,2026.00,1579.25,1895.11,2057.24,350.47,345.49,24.25,0000 0000 0000 0000 000000
2015-01-22 06:25:25,0.38,6.97,0.00,23.73,27.73,30.35,4.76,28.10,1011.25,2026.00,1577.48,1893.76,2055.76,350.40,345.47,24.28,0000 0000 0000 0000 000000
2015-01-22 06:30:26,0.36,6.98,0.00,23.75,27.73,30.35,4.69,27.95,1011.25,2026.00,1575.83,1892.56,2054.42,349.55,344.58,24.31,0000 0000 0000 0000 000000
2015-01-22 06:35:27,0.32,6.99,0.00,23.73,27.73,30.34,4.82,27.95,1011.25,2026.00,1574.26,1891.34,2053.03,350.36,345.52,24.34,0000 0000 0000 0000 000000
2015-01-22 06:40:29,0.41,7.00,0.00,23.73,27.73,30.33,4.75,28.07,1011.25,2026.00,1572.45,1889.96,2051.57,350.07,345.13,24.37,0000 0000 0000 0000 000000
2015-01-22 06:45:30,0.34,7.01,0.00,23.74,27.73,30.37,4.69,28.10,1011.25,2026.00,1570.88,1888.73,2050.27,349.91,344.83,24.40,0000 0000 0000 0000 000000
2015-01-22 06:50:31,0.38,7.02,0.00,23.74,27.73,30.36,4.83,28.18,1011.25,2026.00,1569.15,1887.51,2048.87,349.84,345.09,24.43,0000 0000 0000 0000 000000
2015-01-22 06:55:33,0.35,7.03,0.00,23.70,27.74,30.37,4.80,28.13,1011.25,2026.00,1567.42,1886.26,2047.49,350.62,345.76,24.46,0000 0000 0000 0000 000000
2015-01-22 07:00:34,0.33,7.04,0.00,23.72,27.74,30.36,4.67,27.84,1011.25,2026.00,1565.78,1884.95,2046.48,350.02,345.03,24.49,0000 0000 0000 0000 000000
2015-01-22 07:05:35,0.39,7.05,0.00,23.73,27.74,30.37,4.77,27.98,1011.25,2026.00,1564.09,1883.67,2045.04,350.01,345.02,24.52,0000 0000 0000 0000 000000
2015-01-22 07:10:36,0.37,7.06,0.00,23.71,27.74,30.34,4.75,27.98,1011.25,2026.00,1562.32,1882.35,2043.58,349.72,344.71,24.55,0000 0000 0000 0000 000000
2015-01-22 07:15:38,0.41,7.08,0.00,23.71,27.74,30.38,4.75,27.98,1011.25,2025.99,1560.57,1880.91,2041.98,349.13,344.05,24.58,0000 0000 0000 0000 000000
2015-01-22 07:20:39,0.43,7.09,0.00,23.72,27.74,30.35,4.68,27.96,1011.26,2025.99,1558.61,1879.41,2040.34,350.07,345.05,24.61,0000 0000 0000 0000 000000
2015-01-22 07:25:41,0.49,7.10,0.00,23.74,27.75,30.34,4.72,27.92,1011.26,2025.98,1556.57,1877.71,2038.55,349.76,344.92,24.64,0000 0000 0000 0000 000000
2015-01-22 07:30:42,0.55,7.12,0.00,23.75,27.75,30.37,4.75,28.02,1011.27,2025.99,1554.26,1875.84,2036.57,349.83,344.88,24.66,0000 0000 0000 0000 000000
2015-01-22 07:35:43,0.51,7.13,0.00,23.72,27.75,30.35,4.77,27.98,1011.25,2025.97,1551.95,1874.02,2034.56,349.89,344.76,24.69,0000 0000 0000 0000 000000
2015-01-22 07:40:45,0.68,7.15,0.00,23.73,27.75,30.36,4.78,28.04,1011.25,2025.98,1549.21,1871.79,2032.20,350.72,345.72,24.72,0000 0000 0000 0000 000000
2015-01-22 07:45:46,0.68,7.17,0.00,23.70,27.74,30.37,4.72,27.98,1011.25,2025.99,1546.21,1869.34,2029.59,349.53,344.37,24.75,0000 0000 0000 0000 000000
2015-01-22 07:50:47,0.72,7.19,0.00,23.70,27.75,30.35,4.64,27.96,1011.25,2025.98,1543.13,1866.82,2026.95,349.64,345.01,24.78,0000 0000 0000 0000 000000
2015-01-22 07:55:49,0.68,7.21,0.00,23.69,27.74,30.36,4.67,27.88,1011.24,2025.97,1540.09,1864.37,2024.34,349.57,344.52,24.81,0000 0000 0000 0000 000000
2015-01-22 08:00:50,0.70,7.23,0.90,23.73,27.74,30.35,4.69,28.02,1011.24,2025.98,1537.14,1861.94,2021.79,349.63,344.64,24.84,0000 0000 0000 0000 000000
2015-01-22 08:05:51,0.64,7.25,1.00,23.71,27.74,30.34,4.73,28.08,1011.24,2025.98,1534.44,1859.53,2019.21,349.88,345.03,24.87,0000 0000 0000 0000 000000
2015-01-22 08:10:52,0.66,7.27,1.00,23.75,27.74,30.35,4.73,28.13,1011.24,2025.98,1531.62,1857.15,2016.72,350.23,345.13,24.90,0000 0000 0000 0000 000000
2015-01-22 08:15:53,0.56,7.29,1.00,23.72,27.74,30.34,4.71,28.04,1011.24,2025.99,1529.06,1855.20,2014.53,349.46,344.67,24.93,0000 0000 0000 0000 000000
2015-01-22 08:20:55,0.52,7.30,1.00,23.71,27.74,30.37,4.79,28.32,1011.24,2025.99,1526.82,1853.47,2012.59,349.38,344.33,24.96,0000 0000 0000 0000 000000
2015-01-22 08:25:57,0.43,7.32,1.00,23.77,27.75,30.36,4.75,27.98,1011.24,2025.99,1524.84,1851.88,2010.89,349.95,345.04,24.99,0000 0000 0000 0000 000000
2015-01-22 08:30:58,0.41,7.33,1.00,23.75,27.75,30.37,4.76,28.14,1011.24,2025.99,1523.01,1850.46,2009.36,350.04,345.23,25.02,0000 0000 0000 0000 000000
2015-01-22 08:35:59,0.40,7.34,1.00,23.73,27.75,30.36,4.72,28.06,1011.24,2025.99,1521.29,1849.05,2007.79,350.11,345.16,25.04,0000 0000 0000 0000 000000
2015-01-22 08:41:00,0.38,7.35,1.00,23.72,27.75,30.37,4.79,28.13,1011.22,2025.98,1519.66,1847.75,2006.39,349.99,345.16,25.07,0000 0000 0000 0000 000000
2015-01-22 08:46:02,0.33,7.36,1.00,23.66,27.75,30.36,4.71,28.02,1011.22,2025.98,1518.16,1846.59,2005.07,349.48,344.70,25.10,0000 0000 0000 0000 000000
2015-01-22 08:51:03,0.38,7.37,1.00,23.69,27.75,30.37,4.76,28.08,1011.23,2025.97,1516.57,1845.37,2003.68,349.91,345.12,25.13,0000 0000 0000 0000 000000
2015-01-22 08:56:04,0.38,7.39,1.00,23.72,27.75,30.38,4.84,28.24,1011.23,2025.98,1514.85,1843.98,2002.22,350.43,345.40,25.16,0000 0000 0000 0000 000000
2015-01-22 09:01:05,0.38,7.40,0.03,23.69,27.75,30.36,4.75,28.07,1011.24,2025.97,1513.30,1842.68,2000.77,350.09,345.10,25.19,0000 0000 0000 0000 000000
2015-01-22 09:06:07,0.38,7.41,0.00,23.73,27.75,30.37,4.81,28.13,1011.24,2025.95,1511.66,1841.40,1999.42,350.10,345.19,25.22,0000 0000 0000 0000 000000
2015-01-22 09:11:08,0.45,7.42,0.00,23.72,27.74,30.40,4.78,28.12,1011.22,2025.96,1509.76,1839.92,1997.83,349.91,344.89,25.25,0000 0000 0000 0000 000000
2015-01-22 09:16:09,0.40,7.44,0.00,23.73,27.74,30.38,4.69,27.98,1011.18,2025.97,1508.00,1838.51,1996.31,349.45,344.43,25.28,0000 0000 0000 0000 000000
2015-01-22 09:21:10,0.44,7.45,0.00,23.72,27.74,30.36,4.76,28.08,1011.17,2025.98,1506.14,1837.00,1994.70,350.54,345.26,25.31,0000 0000 0000 0000 000000
2015-01-22 09:26:12,0.47,7.46,0.00,23.73,27.74,30.35,4.81,28.26,1011.09,2025.97,1504.19,1835.46,1992.90,350.57,345.29,25.34,0000 0000 0000 0000 000000
2015-01-22 09:31:13,0.53,7.47,0.00,23.73,27.74,30.35,4.77,28.18,1011.00,2025.98,1502.00,1833.69,1991.10,350.15,345.15,25.37,0000 0000 0000 0000 000000
2015-01-22 09:36:14,0.44,7.49,0.00,23.70,27.74,30.36,4.76,28.15,1011.13,2025.98,1499.92,1832.12,1989.41,349.33,344.25,25.40,0000 0000 0000 0000 000000
2015-01-22 09:41:15,0.44,7.50,0.00,23.70,27.73,30.35,4.76,28.11,1011.07,2025.97,1498.12,1830.67,1987.82,350.21,345.19,25.43,0000 0000 0000 0000 000000
2015-01-22 09:46:17,0.45,7.52,0.00,23.72,27.73,30.35,4.78,28.14,1010.98,2025.97,1496.21,1829.11,1986.15,350.03,345.01,25.45,0000 0000 0000 0000 000000
2015-01-22 09:51:18,0.49,7.53,0.00,23.69,27.73,30.36,4.68,28.05,1010.91,2025.98,1494.22,1827.54,1984.49,349.99,345.02,25.48,0000 0000 0000 0000 000000
2015-01-22 09:56:19,0.45,7.54,0.00,23.70,27.73,30.34,4.72,28.05,1010.89,2025.97,1492.26,1825.96,1982.91,350.32,345.17,25.51,0000 0000 0000 0000 000000
2015-01-22 10:01:21,0.43,7.56,0.00,23.70,27.73,30.34,4.77,28.15,1010.81,2025.97,1490.40,1824.52,1981.33,350.22,345.11,25.54,0000 0000 0000 0000 000000
2015-01-22 10:06:22,0.48,7.57,0.00,23.70,27.74,30.36,4.82,28.24,1010.80,2025.95,1488.48,1822.88,1979.63,350.61,345.31,25.57,0000 0000 0000 0000 000000
2015-01-22 10:11:24,0.45,7.58,0.00,23.69,27.74,30.36,4.77,28.15,1010.81,2025.98,1486.59,1821.37,1978.01,349.62,344.63,25.60,0000 0000 0000 0000 000000
2015-01-22 10:16:26,0.45,7.60,0.00,23.73,27.74,30.39,4.70,28.07,1010.88,2025.95,1484.71,1819.83,1976.43,350.13,344.99,25.63,0000 0000 0000 0000 000000
2015-01-22 10:21:27,0.46,7.61,0.00,23.70,27.74,30.36,4.67,28.05,1010.95,2025.94,1482.85,1818.42,1974.76,349.41,344.51,25.66,0000 0000 0000 0000 000000
2015-01-22 10:26:28,0.44,7.62,0.00,23.72,27.74,30.34,4.76,28.16,1010.97,2025.96,1481.03,1816.92,1973.18,350.29,345.11,25.69,0000 0000 0000 0000 000000
2015-01-22 10:31:29,0.43,7.64,0.00,23.74,27.74,30.34,4.81,28.18,1011.00,2025.92,1479.21,1815.43,1971.55,350.30,345.30,25.72,0000 0000 0000 0000 000000
2015-01-22 10:36:30,0.45,7.65,0.00,23.71,27.75,30.34,4.81,28.20,1011.01,2025.91,1477.36,1813.89,1969.94,349.73,344.54,25.75,0000 0000 0000 0000 000000
2015-01-22 10:41:31,0.41,7.66,0.00,23.68,27.75,30.35,4.80,28.19,1010.89,2025.85,1475.42,1812.46,1968.34,349.80,344.66,25.78,0000 0000 0000 0000 000000
2015-01-22 10:46:33,0.45,7.68,0.00,23.68,27.75,30.35,4.74,28.21,1010.82,2025.89,1473.68,1811.03,1966.80,350.03,344.68,25.81,0000 0000 0000 0000 000000
2015-01-22 10:51:34,0.40,7.69,0.00,23.70,27.75,30.38,4.79,28.24,1011.02,2025.91,1472.10,1809.66,1965.36,350.30,345.46,25.84,0000 0000 0000 0000 000000
2015-01-22 10:56:35,0.41,7.70,0.00,23.71,27.75,30.36,4.79,28.25,1011.00,2025.85,1470.60,1808.27,1963.75,350.60,345.37,25.87,0000 0000 0000 0000 000000
2015-01-22 11:01:37,0.49,7.71,0.00,23.68,27.75,30.36,4.69,28.18,1010.82,2025.87,1468.74,1806.71,1962.13,349.60,344.51,25.89,0000 0000 0000 0000 000000
2015-01-22 11:06:38,0.47,7.73,0.00,23.70,27.75,30.37,4.77,28.10,1010.96,2025.89,1466.76,1805.16,1960.40,349.96,344.74,25.92,0000 0000 0000 0000 000000
2015-01-22 11:11:39,0.49,7.74,0.00,23.74,27.75,30.37,4.67,28.19,1010.85,2025.84,1464.68,1803.59,1958.71,349.74,344.33,25.95,0000 0000 0000 0000 000000
2015-01-22 11:16:41,0.49,7.76,0.00,23.74,27.75,30.34,4.74,28.17,1010.77,2025.84,1462.67,1801.94,1956.97,349.75,344.64,25.98,0000 0000 0000 0000 000000
2015-01-22 11:21:42,0.46,7.77,0.00,23.70,27.75,30.36,4.76,28.26,1010.77,2025.85,1460.65,1800.45,1955.32,350.29,345.19,26.01,0000 0000 0000 0000 000000
2015-01-22 11:26:43,0.50,7.78,0.00,23.70,27.75,30.38,4.77,28.23,1010.76,2025.94,1458.71,1798.94,1953.73,349.92,344.78,26.04,0000 0000 0000 0000 000000
2015-01-22 11:31:45,0.45,7.80,0.00,23.68,27.75,30.36,4.72,28.07,1010.76,2025.89,1456.79,1797.50,1952.14,349.31,344.21,26.07,0000 0000 0000 0000 000000
2015-01-22 11:36:46,0.47,7.81,0.00,23.72,27.75,30.38,4.75,28.23,1010.76,2025.96,1454.91,1796.00,1950.58,350.15,345.13,26.10,0000 0000 0000 0000 000000
2015-01-22 11:41:47,0.47,7.83,0.00,23.71,27.74,30.36,4.74,28.06,1010.76,2025.94,1452.91,1794.57,1949.02,350.01,344.65,26.13,0000 0000 0000 0000 000000
2015-01-22 11:46:49,0.38,7.84,0.00,23.68,27.74,30.35,4.73,28.03,1010.76,2025.97,1451.26,1793.25,1947.63,350.07,344.99,26.16,0000 0000 0000 0000 000000
2015-01-22 11:51:50,0.40,7.85,0.00,23.68,27.74,30.37,4.72,28.16,1010.76,2025.96,1449.55,1791.95,1946.18,349.68,344.67,26.19,0000 0000 0000 0000 000000
2015-01-22 11:56:51,0.44,7.86,0.00,23.67,27.75,30.38,4.70,28.18,1010.75,2025.96,1447.64,1790.73,1944.81,349.72,344.65,26.22,0000 0000 0000 0000 000000
2015-01-22 12:01:52,0.39,7.87,0.00,23.66,27.75,30.37,4.76,28.23,1010.76,2025.98,1446.07,1789.55,1943.61,349.76,344.87,26.25,0000 0000 0000 0000 000000
2015-01-22 12:06:54,0.35,7.88,0.00,23.67,27.75,30.38,4.76,28.23,1010.76,2025.99,1444.63,1788.52,1942.47,349.88,344.83,26.28,0000 0000 0000 0000 000000
2015-01-22 12:11:55,0.30,7.89,0.00,23.67,27.75,30.38,4.74,28.30,1010.76,2025.97,1443.33,1787.40,1941.20,349.71,344.61,26.30,0000 0000 0000 0000 000000
2015-01-22 12:16:56,0.37,7.91,0.00,23.66,27.75,30.39,4.79,28.38,1010.74,2025.99,1441.83,1786.28,1939.92,350.01,344.72,26.33,0000 0000 0000 0000 000000
2015-01-22 12:21:57,0.37,7.92,0.00,23.68,27.75,30.35,4.75,28.06,1010.75,2025.99,1440.37,1785.09,1938.66,350.01,344.67,26.36,0000 0000 0000 0000 000000
2015-01-22 12:26:59,0.36,7.93,0.00,23.68,27.75,30.36,4.75,28.32,1010.75,2025.99,1438.80,1783.95,1937.47,349.76,344.55,26.39,0000 0000 0000 0000 000000
2015-01-22 12:32:00,0.35,7.94,0.00,23.68,27.75,30.36,4.72,28.42,1010.74,2025.99,1437.42,1782.80,1936.25,349.82,344.77,26.42,0000 0000 0000 0000 000000
2015-01-22 12:37:01,0.35,7.95,0.00,23.67,27.75,30.38,4.76,28.36,1010.65,2025.99,1435.95,1781.67,1934.97,350.26,345.19,26.45,0000 0000 0000 0000 000000
2015-01-22 12:42:03,0.39,7.96,0.00,23.71,27.75,30.37,4.74,28.22,1010.39,2025.99,1434.52,1780.56,1933.73,350.09,344.82,26.48,0000 0000 0000 0000 000000
2015-01-22 12:47:04,0.29,7.97,0.00,23.73,27.75,30.36,4.70,28.19,1010.43,2025.99,1433.25,1779.59,1932.63,349.94,344.50,26.51,0000 0000 0000 0000 000000
2015-01-22 12:52:05,0.34,7.98,0.00,23.68,27.75,30.37,4.74,28.20,1010.32,2025.99,1431.91,1778.47,1931.48,350.04,344.78,26.54,0000 0000 0000 0000 000000
2015-01-22 12:57:07,0.35,7.99,0.00,23.71,27.75,30.37,4.76,28.31,1010.34,2025.99,1430.52,1777.41,1930.27,350.45,345.26,26.57,0000 0000 0000 0000 000000
2015-01-22 13:02:08,0.33,8.00,0.00,23.72,27.75,30.36,4.78,28.23,1010.39,2025.99,1429.12,1776.34,1929.05,350.28,344.95,26.60,0000 0000 0000 0000 000000